Location: Haliburton Scout Reserve
(45.0900°N, 78.3200°W)
Time: 09:02:17
(UTC-04:00)

S-56A Canister/Altair - Pass Details

Date: 02 February 2023
Orbit: 639 x 2493 km, 38.9° (Epoch: 27 March)

Event Time Altitude Azimuth Distance (km) Brightness Sun altitude
Rises 17:17:07 0° 271° (W) 3,855 12.5 0.0°
Reaches altitude 10° 17:20:08 10° 257° (WSW) 3,151 12.7 -0.5°
Maximum altitude 17:26:05 23° 208° (SSW) 2,761 11.1 -1.5°
Drops below altitude 10° 17:33:54 10° 163° (SSE) 4,244 11.4 -2.7°
Sets 17:38:50 0° 151° (SSE) 5,557 11.8 -3.6°
